Amarillo, TX

5:50 PM CST on December 04, 2016 (GMT -0600)
Amarillo International

Weather History for KAMA - July, 2013

Change the Weather History Date:

Friday, July 19, 2013

  Actual Average Record
Temperature  
Mean Temperature 76 °F 78 °F  
Max Temperature 86 °F 92 °F 102 °F (1936)
Min Temperature 65 °F 65 °F 59 °F (1947)
Degree Days  
Heating Degree Days 0 0  
Month to date heating degree days 0 0  
Since 1 June heating degree days 0 7  
Since 1 July heating degree days 0 0  
Cooling Degree Days 11 14  
Month to date cooling degree days 237 255  
Year to date cooling degree days 876 668  
Since 1 June cooling degree days 628 543  
Growing Degree Days 25 (Base 50)    
Moisture  
Dew Point 63 °F    
Average Humidity 68    
Maximum Humidity 93    
Minimum Humidity 42    
Precipitation  
Precipitation 0.00 in 0.10 in 1.30 in (1970)
Month to date precipitation 1.25 1.67  
Year to date precipitation 10.34 11.19  
Snow  
Snow 0.00 in 0.00 in T in (1950)
Month to date snowfall 0.0 0.0  
Since 1 June snowfall 0.0 0.0  
Since 1 July snowfall 0.0 0.0  
Snow Depth 0.00 in    
Sea Level Pressure  
Sea Level Pressure 29.97 in    
Wind  
Wind Speed 14 mph (SSW)    
Max Wind Speed 22 mph    
Max Gust Speed 33 mph    
Visibility 10 miles    
Events      
T = Trace of Precipitation, MM = Missing Value Source: NWS Daily Summary

Daily Weather History Graph

Daily Weather History Graph

Search for Another Location

Airport or City:

Trip Planner

Search our weather history database for the weather conditions in past years. The results will help you decide how hot, cold, wet, or windy it might be!

Date:

Astronomy

Jul. 19, 2013 Rise Set
Actual Time 6:46 AM CDT 8:59 PM CDT
Civil Twilight 6:17 AM CDT 9:28 PM CDT
Nautical Twilight 5:42 AM CDT 10:03 PM CDT
Astronomical Twilight 5:04 AM CDT 10:41 PM CDT
Moon 6:04 PM CDT (7/19) 3:28 AM CDT (7/19)
Length of Visible Light 15h 10m
Length of Day
14h 12m
Waxing Gibbous, 87% of the Moon is Illuminated
Jul 19
Waxing Gibbous
Jul 22
Full
Jul 29
Last Quarter
Aug 6
New
Aug 14
First Quarter

Hourly Weather History & Observations

Time (CDT) Temp. Heat Index Dew Point Humidity Pressure Visibility Wind Dir Wind Speed Gust Speed Precip Events Conditions
12:53 AM 69.1 °F - 64.9 °F 87% 30.03 in 10.0 mi South 12.7 mph - N/A   Clear
1:53 AM 68.0 °F - 64.9 °F 90% 30.03 in 10.0 mi South 12.7 mph - N/A   Clear
2:53 AM 66.9 °F - 64.9 °F 93% 30.02 in 10.0 mi South 9.2 mph - N/A   Clear
3:53 AM 66.9 °F - 64.0 °F 90% 30.01 in 10.0 mi South 9.2 mph - N/A   Clear
4:53 AM 66.0 °F - 64.0 °F 93% 30.00 in 10.0 mi SSW 8.1 mph - N/A   Clear
5:53 AM 66.0 °F - 63.0 °F 90% 30.00 in 10.0 mi SSW 10.4 mph - N/A   Clear
6:53 AM 64.9 °F - 63.0 °F 93% 30.01 in 10.0 mi SSW 8.1 mph - N/A   Clear
7:53 AM 66.9 °F - 64.0 °F 90% 30.01 in 10.0 mi SSW 10.4 mph - N/A   Clear
8:33 AM 68.0 °F - 64.4 °F 88% 30.15 in 7.0 mi SSW 16.1 mph - N/A   Partly Cloudy
8:53 AM 69.1 °F - 64.9 °F 87% 30.01 in 8.0 mi SSW 17.3 mph - N/A   Partly Cloudy
9:53 AM 73.9 °F - 64.9 °F 73% 30.01 in 10.0 mi SSW 13.8 mph - N/A   Partly Cloudy
10:53 AM 78.1 °F - 63.0 °F 60% 29.99 in 10.0 mi SSW 15.0 mph - N/A   Partly Cloudy
11:53 AM 80.1 °F 81.5 °F 63.0 °F 56% 29.99 in 10.0 mi SSW 17.3 mph 25.3 mph N/A   Mostly Cloudy
12:53 PM 81.0 °F 81.9 °F 62.1 °F 52% 29.98 in 10.0 mi SW 16.1 mph 24.2 mph N/A   Mostly Cloudy
1:53 PM 84.0 °F 84.5 °F 62.1 °F 47% 29.96 in 10.0 mi SW 18.4 mph 26.5 mph N/A   Scattered Clouds
2:53 PM 82.9 °F 83.3 °F 61.0 °F 47% 29.95 in 10.0 mi SSW 18.4 mph 24.2 mph N/A   Scattered Clouds
3:53 PM 84.9 °F 85.0 °F 61.0 °F 44% 29.92 in 10.0 mi SSW 17.3 mph 25.3 mph N/A   Partly Cloudy
4:53 PM 84.9 °F 84.8 °F 60.1 °F 43% 29.89 in 10.0 mi SSW 16.1 mph 25.3 mph N/A   Mostly Cloudy
5:53 PM 86.0 °F 86.1 °F 61.0 °F 43% 29.87 in 10.0 mi SSW 17.3 mph - N/A   Partly Cloudy
6:53 PM 84.0 °F 84.4 °F 61.0 °F 46% 29.86 in 10.0 mi SSW 17.3 mph 24.2 mph N/A   Partly Cloudy
7:53 PM 82.0 °F 82.7 °F 61.0 °F 49% 29.86 in 10.0 mi SSW 17.3 mph - N/A   Scattered Clouds
8:53 PM 79.0 °F - 62.1 °F 56% 29.89 in 10.0 mi South 11.5 mph - N/A   Clear
9:53 PM 75.9 °F - 61.0 °F 60% 29.90 in 10.0 mi South 11.5 mph - N/A   Clear
10:53 PM 75.0 °F - 62.1 °F 64% 29.91 in 10.0 mi South 15.0 mph - N/A   Clear
11:53 PM 73.0 °F - 62.1 °F 68% 29.93 in 10.0 mi South 12.7 mph - N/A   Clear